George, South Africa

8:38 AM SAST on November 18, 2017 (GMT +0200)
George

Weather History for FAGG - January, 2013

Change the Weather History Date:

Saturday, January 12, 2013

  Actual Average Record
Temperature  
Mean Temperature 62 °F -  
Max Temperature 74 °F 74 °F 82 °F (2015)
Min Temperature 50 °F 58 °F 60 °F (2017)
Degree Days  
Heating Degree Days 3    
Growing Degree Days 12 (Base 50)    
Moisture  
Dew Point 55 °F    
Average Humidity 70    
Maximum Humidity 94    
Minimum Humidity 43    
Precipitation  
Precipitation 0.00 in - - ()
Sea Level Pressure  
Sea Level Pressure 30.04 in    
Wind  
Wind Speed 6 mph ()    
Max Wind Speed 18 mph    
Max Gust Speed -    
Visibility 8.3 miles    
Events      
Averages and records for this station are not official NWS values.
T = Trace of Precipitation, MM = Missing Value Source: Averaged Metar Reports

Daily Weather History Graph

Daily Weather History Graph

Search for Another Location

Airport or City:

Trip Planner

Search our weather history database for the weather conditions in past years. The results will help you decide how hot, cold, wet, or windy it might be!

Date:

Astronomy

Jan. 12, 2013 Rise Set
Actual Time 5:32 AM SAST 7:45 PM SAST
Civil Twilight 5:03 AM SAST 8:13 PM SAST
Nautical Twilight 4:28 AM SAST 8:48 PM SAST
Astronomical Twilight 3:50 AM SAST 9:26 PM SAST
Moon 6:11 AM SAST (1/12) 8:06 PM SAST (1/12)
Length of Visible Light 15h 10m
Length of Day
14h 12m
New Moon, 1% of the Moon is Illuminated
Jan 12
New Moon
Jan 19
First Quarter
Jan 27
Full
Feb 3
Last Quarter
Feb 10
New

Hourly Weather History & Observations

Time (SAST) Temp. Dew Point Humidity Pressure Visibility Wind Dir Wind Speed Gust Speed Precip Events Conditions
12:00 AM 57.2 °F 50.0 °F 77% 30.12 in - North 2.3 mph - N/A   Clear
1:00 AM 57.2 °F 50.0 °F 77% 30.12 in 6.2 mi NNE 2.3 mph - N/A   Mostly Cloudy
2:00 AM 54 °F 49 °F 79% 30.12 in 19 mi 2.3 mph - -  
2:00 AM 53.6 °F 48.2 °F 82% 30.09 in - NNE 4.6 mph - N/A   Clear
3:00 AM 53.6 °F 46.4 °F 77% 30.09 in - North 3.5 mph - N/A   Clear
4:00 AM 53.6 °F 46.4 °F 77% 30.09 in - North 2.3 mph - N/A   Clear
5:00 AM 54 °F 47 °F 70% 30.10 in 12 mi North 3.5 mph - -  
5:00 AM 53.6 °F 48.2 °F 82% 30.09 in - North 3.5 mph - N/A   Clear
6:00 AM 53.6 °F 48.2 °F 82% 30.06 in - ENE 2.3 mph - N/A   Clear
7:00 AM 59.0 °F 50.0 °F 72% 30.09 in - Variable 2.3 mph - N/A   Clear
8:00 AM 65 °F 54 °F 59% 30.10 in 12 mi East 9.2 mph - -   Scattered Clouds
8:00 AM 64.4 °F 53.6 °F 68% 30.09 in 6.2 mi East 9.2 mph - N/A   Partly Cloudy
9:00 AM 68.0 °F 53.6 °F 60% 30.06 in 6.2 mi East 9.2 mph - N/A   Partly Cloudy
10:00 AM 69.8 °F 53.6 °F 56% 30.06 in 6.2 mi ESE 11.5 mph - N/A   Partly Cloudy
11:00 AM 71 °F 55 °F 47% 30.08 in 12 mi SE 11.5 mph - -   Scattered Clouds
11:00 AM 71.6 °F 55.4 °F 57% 30.06 in 6.2 mi SE 11.5 mph - N/A   Partly Cloudy
12:00 PM 71.6 °F 53.6 °F 53% 30.06 in 6.2 mi SE 13.8 mph - N/A   Partly Cloudy
1:00 PM 71.6 °F 55.4 °F 57% 30.04 in 6.2 mi SE 15.0 mph - N/A   Partly Cloudy
2:00 PM 74 °F 56 °F 43% 30.02 in 19 mi ESE 16.1 mph - -   Scattered Clouds
2:00 PM 73.4 °F 57.2 °F 57% 30.04 in 6.2 mi ESE 13.8 mph - N/A   Partly Cloudy
3:00 PM 73.4 °F 60.8 °F 65% 30.01 in 6.2 mi ESE 17.3 mph - N/A   Partly Cloudy
4:00 PM 73.4 °F 60.8 °F 65% 29.98 in 6.2 mi East 16.1 mph - N/A   Partly Cloudy
5:00 PM 72 °F 62 °F 62% 29.94 in 12 mi ESE 18.4 mph - -   Scattered Clouds
5:00 PM 71.6 °F 62.6 °F 73% 29.95 in 6.2 mi ESE 17.3 mph - N/A   Partly Cloudy
6:00 PM 71.6 °F 60.8 °F 69% 29.92 in - ESE 15.0 mph - N/A   Clear
7:00 PM 69.8 °F 62.6 °F 78% 29.95 in - SE 15.0 mph - N/A   Clear
8:00 PM 66.2 °F 62.6 °F 88% 29.95 in 6.2 mi East 9.2 mph - N/A   Partly Cloudy
9:00 PM 66.2 °F 62.6 °F 88% 29.95 in 6.2 mi East 5.8 mph - N/A   Partly Cloudy
10:00 PM 64.4 °F 62.6 °F 94% 29.95 in 5.0 mi ENE 3.5 mph - N/A   Unknown
11:00 PM 64.4 °F 62.6 °F 94% 29.95 in 3.1 mi East 2.3 mph - N/A   Mist